Location: Baia Mare
(47.6567°N, 23.5850°E)
Time: 11:40:31
(UTC+02:00)

ISS - Pass Details

Date: 02 February 2019
Orbit: 404 x 407 km, 51.6° (Epoch: 16 January)

Event Time Altitude Azimuth Distance (km) Brightness Sun altitude
Rises 20:33:37 0° 293° (WNW) 2,329 1.1 -31.4°
Reaches altitude 10° 20:35:43 10° 290° (WNW) 1,466 -0.2 -31.8°
Enters shadow 20:35:45 10° 290° (WNW) 1,457 -0.2 -31.8°
